English version
lugares datos climáticos artículos

datos de Mairena del Aljarafe, Sevilla, España
Año Mes Dia Mostrar

  Fecha       hora        Temp.ext.    Hum.ext.  Dir.Viento   Vel.Viento  Presion al NM   T.int. Prec.hoy 

   27-01-2020    05:00       9.0º(-0.3)     93%      022 (N)      3.2 km/h    1026.1 hpa     20.9º    0.0 mm
   27-01-2020    04:55       9.2º(-0.2)     93%      022 (N)      3.2 km/h    1026.1 hpa     20.9º    0.0 mm
   27-01-2020    04:50       9.3º(-0.1)     93%      022 (N)      1.6 km/h    1026.0 hpa     20.9º    0.0 mm
   27-01-2020    04:45       9.3º(-0.2)     93%      022 (N)      1.6 km/h    1026.1 hpa     21.1º    0.0 mm
   27-01-2020    04:40       9.3º(-0.2)     93%      022 (N)      1.6 km/h    1026.2 hpa     21.1º    0.0 mm
   27-01-2020    04:35       9.3º(-0.2)     93%      022 (N)      1.6 km/h    1026.2 hpa     21.1º    0.0 mm
   27-01-2020    04:30       9.4º(-0.1)     93%         -         0.0 km/h    1026.2 hpa     21.1º    0.0 mm
   27-01-2020    04:25       9.4º(-0.1)     93%         -         0.0 km/h    1026.2 hpa     21.2º    0.0 mm
   27-01-2020    04:20       9.4º(-0.2)     93%      022 (N)      1.6 km/h    1026.3 hpa     21.2º    0.0 mm
   27-01-2020    04:15       9.4º(-0.2)     93%      022 (N)      1.6 km/h    1026.3 hpa     21.2º    0.0 mm
   27-01-2020    04:10       9.4º(-0.2)     93%      022 (N)      1.6 km/h    1026.4 hpa     21.2º    0.0 mm
   27-01-2020    04:05       9.5º(-0.1)     93%      022 (N)      1.6 km/h    1026.4 hpa     21.2º    0.0 mm
   27-01-2020    04:00       9.6º(+0.0)     93%         -         0.0 km/h    1026.3 hpa     21.2º    0.0 mm
   27-01-2020    03:55       9.6º(+0.0)     93%         -         0.0 km/h    1026.3 hpa     21.2º    0.0 mm
   27-01-2020    03:50       9.6º(+0.0)     93%         -         0.0 km/h    1026.3 hpa     21.2º    0.0 mm
   27-01-2020    03:45       9.7º(+0.1)     92%      022 (N)      1.6 km/h    1026.4 hpa     21.3º    0.0 mm
   27-01-2020    03:40       9.7º(+0.2)     92%         -         0.0 km/h    1026.4 hpa     21.3º    0.0 mm
   27-01-2020    03:35       9.8º(+0.3)     92%      022 (N)      1.6 km/h    1026.5 hpa     21.3º    0.0 mm
   27-01-2020    03:30       9.8º(+0.3)     92%         -         0.0 km/h    1026.5 hpa     21.3º    0.0 mm
   27-01-2020    03:25       9.9º(+0.3)     92%      022 (N)      1.6 km/h    1026.5 hpa     21.4º    0.0 mm
   27-01-2020    03:20       9.9º(+0.3)     92%      022 (N)      1.6 km/h    1026.5 hpa     21.4º    0.0 mm
   27-01-2020    03:15      10.0º(+0.4)     92%         -         0.0 km/h    1026.5 hpa     21.4º    0.0 mm
   27-01-2020    03:10      10.1º(+0.5)     92%      022 (N)      1.6 km/h    1026.5 hpa     21.5º    0.0 mm
   27-01-2020    03:05      10.1º(+0.5)     92%      022 (N)      1.6 km/h    1026.4 hpa     21.5º    0.0 mm
   27-01-2020    03:00      10.2º(+0.6)     92%      022 (N)      1.6 km/h    1026.5 hpa     21.5º    0.0 mm
   27-01-2020    02:55      10.2º(+0.6)     92%         -         0.0 km/h    1026.5 hpa     21.6º    0.0 mm
   27-01-2020    02:50      10.2º(+0.6)     92%      022 (N)      1.6 km/h    1026.5 hpa     21.6º    0.0 mm
   27-01-2020    02:45      10.2º(+0.6)     92%      022 (N)      1.6 km/h    1026.5 hpa     21.6º    0.0 mm
   27-01-2020    02:40      10.2º(+0.6)     91%      022 (N)      1.6 km/h    1026.5 hpa     21.7º    0.0 mm
   27-01-2020    02:35      10.2º(+0.6)     92%         -         0.0 km/h    1026.5 hpa     21.7º    0.0 mm
   27-01-2020    02:30      10.2º(+0.6)     91%      022 (N)      1.6 km/h    1026.5 hpa     21.8º    0.0 mm
   27-01-2020    02:25      10.3º(+0.7)     91%      022 (N)      1.6 km/h    1026.5 hpa     21.8º    0.0 mm
   27-01-2020    02:20      10.3º(+0.7)     91%         -         0.0 km/h    1026.5 hpa     21.9º    0.0 mm
   27-01-2020    02:15      10.3º(+0.7)     91%         -         0.0 km/h    1026.5 hpa     21.9º    0.0 mm
   27-01-2020    02:10      10.3º(+0.7)     91%         -         0.0 km/h    1026.6 hpa     22.0º    0.0 mm
   27-01-2020    02:05      10.4º(+0.8)     91%         -         0.0 km/h    1026.6 hpa     22.1º    0.0 mm
   27-01-2020    02:00      10.4º(+0.9)     91%         -         0.0 km/h    1026.7 hpa     22.1º    0.0 mm
   27-01-2020    01:55      10.4º(+0.9)     91%      022 (N)      1.6 km/h    1026.7 hpa     22.1º    0.0 mm
   27-01-2020    01:50      10.4º(+0.9)     91%      022 (N)      1.6 km/h    1026.7 hpa     22.1º    0.0 mm
   27-01-2020    01:45      10.4º(+0.9)     91%      022 (N)      1.6 km/h    1026.8 hpa     22.2º    0.0 mm
   27-01-2020    01:40      10.4º(+1.0)     90%      022 (N)      1.6 km/h    1026.8 hpa     22.2º    0.0 mm
   27-01-2020    01:35      10.4º(+1.0)     90%      022 (N)      3.2 km/h    1026.8 hpa     22.2º    0.0 mm
   27-01-2020    01:30      10.5º(+1.0)     90%      000 (N)      3.2 km/h    1026.8 hpa     22.2º    0.0 mm
   27-01-2020    01:25      10.5º(+0.9)     90%      000 (N)      1.6 km/h    1026.9 hpa     22.2º    0.0 mm
   27-01-2020    01:20      10.5º(+0.9)     90%      000 (N)      1.6 km/h    1026.9 hpa     22.2º    0.0 mm
   27-01-2020    01:15      10.4º(+0.7)     89%         -         0.0 km/h    1026.9 hpa     22.2º    0.0 mm
   27-01-2020    01:10      10.5º(+0.7)     88%         -         0.0 km/h    1027.0 hpa     22.2º    0.0 mm
   27-01-2020    01:05      10.6º(+0.8)     89%         -         0.0 km/h    1026.9 hpa     22.2º    0.0 mm
   27-01-2020    01:00      10.7º(+0.9)     88%         -         0.0 km/h    1026.9 hpa     22.2º    0.0 mm
   27-01-2020    00:55      10.8º(----)     88%      000 (N)      1.6 km/h    1026.9 hpa     22.2º    0.0 mm
   27-01-2020    00:50      10.8º(----)     88%      000 (N)      1.6 km/h    1027.0 hpa     22.3º    0.0 mm
   27-01-2020    00:45      10.9º(----)     87%      000 (N)      1.6 km/h    1027.0 hpa     22.3º    0.0 mm
   27-01-2020    00:40      11.0º(----)     86%      000 (N)      1.6 km/h    1027.1 hpa     22.4º    0.0 mm
   27-01-2020    00:35      11.2º(----)     86%         -         0.0 km/h    1027.1 hpa     22.4º    0.0 mm
   27-01-2020    00:30      11.3º(----)     86%         -         0.0 km/h    1027.2 hpa     22.4º    0.0 mm
   27-01-2020    00:25      11.3º(----)     86%         -         0.0 km/h    1027.1 hpa     22.4º    0.0 mm
   27-01-2020    00:20      11.4º(----)     86%         -         0.0 km/h    1027.2 hpa     22.6º    0.0 mm
   27-01-2020    00:15      11.4º(----)     85%         -         0.0 km/h    1027.1 hpa     22.6º    0.0 mm
   27-01-2020    00:10      11.6º(----)     85%      000 (N)      1.6 km/h    1027.2 hpa     22.7º    0.0 mm
   27-01-2020    00:05      11.7º(----)     85%      000 (N)      1.6 km/h    1027.2 hpa     22.7º    0.0 mm
   27-01-2020    00:00      11.8º(----)     85%         -         0.0 km/h    1027.2 hpa     22.8º    0.0 mm